| time (UTC) | temp F | wind direction | speed knots | gust knots | rain 1hr in | rain 24hr in | rain mn in | humidity % | barometer mb |
| 20260504224006 | 39 | 17 | 11.3 | 19.1 | 0.00 | 0.01 | 0.01 | 45 | 977.0 |
| 20260504223507 | 39 | 317 | 11.3 | 19.1 | 0.00 | 0.01 | 0.01 | 44 | 976.9 |
| 20260504223005 | 39 | 350 | 13.0 | 20.0 | 0.00 | 0.01 | 0.01 | 43 | 976.8 |
| 20260504222504 | 39 | 333 | 12.2 | 20.0 | 0.00 | 0.01 | 0.01 | 41 | 976.8 |
| 20260504222007 | 39 | 351 | 11.3 | 18.2 | 0.00 | 0.01 | 0.01 | 43 | 976.7 |
| 20260504221505 | 39 | 348 | 11.3 | 18.2 | 0.00 | 0.01 | 0.01 | 43 | 976.6 |
| 20260504221003 | 39 | 338 | 8.7 | 18.2 | 0.00 | 0.01 | 0.01 | 43 | 976.5 |
| 20260504220503 | 39 | 306 | 9.6 | 18.2 | 0.00 | 0.01 | 0.01 | 42 | 976.6 |
| 20260504220003 | 39 | 340 | 11.3 | 21.7 | 0.00 | 0.01 | 0.01 | 43 | 976.5 |
| 20260504215503 | 39 | 342 | 13.0 | 21.7 | 0.00 | 0.01 | 0.01 | 43 | 976.5 |
| 20260504215006 | 38 | 355 | 13.0 | 19.1 | 0.00 | 0.01 | 0.01 | 43 | 976.4 |
| 20260504214502 | 39 | 330 | 12.2 | 21.7 | 0.00 | 0.01 | 0.01 | 43 | 976.4 |
| 20260504214004 | 39 | 329 | 12.2 | 20.9 | 0.00 | 0.01 | 0.01 | 44 | 976.3 |
| 20260504213502 | 38 | 349 | 12.2 | 20.9 | 0.00 | 0.01 | 0.01 | 45 | 976.2 |
| 20260504213004 | 39 | 333 | 13.0 | 19.1 | 0.00 | 0.01 | 0.01 | 44 | 976.3 |
| 20260504212502 | 39 | 329 | 13.9 | 21.7 | 0.00 | 0.01 | 0.01 | 44 | 976.2 |
| 20260504212001 | 38 | 346 | 13.0 | 21.7 | 0.00 | 0.01 | 0.01 | 47 | 976.1 |
| 20260504211600 | 38 | 348 | 13.0 | 20.9 | 0.00 | 0.01 | 0.01 | 46 | 976.0 |
| 20260504211100 | 38 | 300 | 13.9 | 20.9 | 0.00 | 0.01 | 0.01 | 45 | 976.1 |
| 20260504210600 | 39 | 336 | 13.0 | 22.6 | 0.00 | 0.01 | 0.01 | 46 | 976.2 |
| 20260504210100 | 39 | 313 | 12.2 | 20.0 | 0.00 | 0.01 | 0.01 | 46 | 976.1 |
| 20260504205604 | 39 | 331 | 13.9 | 23.5 | 0.00 | 0.01 | 0.01 | 47 | 976.0 |
| 20260504205103 | 38 | 336 | 12.2 | 23.5 | 0.00 | 0.01 | 0.01 | 48 | 976.1 |
| 20260504204559 | 39 | 335 | 13.0 | 22.6 | 0.00 | 0.01 | 0.01 | 48 | 976.1 |
| 20260504204100 | 38 | 318 | 13.0 | 22.6 | 0.00 | 0.01 | 0.01 | 49 | 976.2 |
| 20260504203601 | 37 | 312 | 14.8 | 22.6 | 0.00 | 0.01 | 0.01 | 47 | 976.3 |
| 20260504203058 | 38 | 317 | 13.9 | 24.3 | 0.00 | 0.01 | 0.01 | 47 | 976.1 |
| 20260504202558 | 37 | 323 | 16.5 | 24.3 | 0.00 | 0.01 | 0.01 | 48 | 976.0 |
| 20260504202058 | 37 | 346 | 13.0 | 25.2 | 0.00 | 0.01 | 0.01 | 49 | 976.0 |
| 20260504201601 | 37 | 344 | 15.6 | 25.2 | 0.00 | 0.01 | 0.01 | 48 | 975.9 |
| 20260504201056 | 37 | 342 | 15.6 | 25.2 | 0.00 | 0.01 | 0.01 | 48 | 975.9 |
| 20260504200556 | 37 | 5 | 13.9 | 22.6 | 0.00 | 0.01 | 0.01 | 48 | 975.7 |
| 20260504200055 | 38 | 330 | 13.9 | 23.5 | 0.00 | 0.01 | 0.01 | 47 | 975.7 |
| 20260504195555 | 38 | 285 | 14.8 | 24.3 | 0.00 | 0.01 | 0.01 | 48 | 975.7 |
| 20260504195057 | 38 | 355 | 15.6 | 24.3 | 0.00 | 0.01 | 0.01 | 49 | 975.6 |
| 20260504194602 | 38 | 332 | 15.6 | 22.6 | 0.00 | 0.01 | 0.01 | 48 | 975.5 |
| 20260504194054 | 39 | 330 | 14.8 | 22.6 | 0.00 | 0.01 | 0.01 | 49 | 975.3 |
| 20260504193554 | 38 | 5 | 14.8 | 22.6 | 0.00 | 0.01 | 0.01 | 49 | 975.4 |
| 20260504193053 | 38 | 309 | 15.6 | 22.6 | 0.00 | 0.01 | 0.01 | 50 | 975.4 |
| 20260504192551 | 39 | 347 | 13.9 | 24.3 | 0.00 | 0.01 | 0.01 | 48 | 975.3 |
| 20260504192051 | 38 | 306 | 14.8 | 26.9 | 0.00 | 0.01 | 0.01 | 50 | 975.1 |
| 20260504191610 | 39 | 338 | 15.6 | 24.3 | 0.00 | 0.01 | 0.01 | 49 | 975.0 |
| 20260504191050 | 39 | 292 | 15.6 | 23.5 | 0.00 | 0.01 | 0.01 | 49 | 974.9 |
| 20260504190548 | 38 | 340 | 14.8 | 25.2 | 0.00 | 0.01 | 0.01 | 49 | 974.8 |
| 20260504190049 | 39 | 292 | 16.5 | 25.2 | 0.00 | 0.01 | 0.01 | 51 | 974.6 |
| 20260504185548 | 39 | 323 | 16.5 | 23.5 | 0.00 | 0.01 | 0.01 | 50 | 974.6 |
| 20260504185047 | 39 | 337 | 13.0 | 22.6 | 0.00 | 0.01 | 0.01 | 51 | 974.4 |
| 20260504184555 | 39 | 355 | 14.8 | 23.5 | 0.00 | 0.01 | 0.01 | 50 | 974.4 |
| 20260504184047 | 38 | 336 | 15.6 | 23.5 | 0.00 | 0.01 | 0.01 | 52 | 974.4 |
| 20260504183547 | 39 | 360 | 14.8 | 21.7 | 0.00 | 0.01 | 0.01 | 51 | 974.4 |
| 20260504183046 | 39 | 341 | 15.6 | 23.5 | 0.00 | 0.01 | 0.01 | 51 | 974.4 |
| 20260504182548 | 39 | 323 | 16.5 | 24.3 | 0.00 | 0.01 | 0.01 | 50 | 974.4 |
| 20260504182046 | 39 | 334 | 15.6 | 22.6 | 0.00 | 0.01 | 0.01 | 50 | 974.3 |
| 20260504181546 | 40 | 360 | 13.9 | 22.6 | 0.00 | 0.01 | 0.01 | 49 | 974.4 |
| 20260504181044 | 40 | 351 | 15.6 | 20.9 | 0.00 | 0.01 | 0.01 | 48 | 974.1 |
| 20260504180547 | 40 | 286 | 14.8 | 24.3 | 0.00 | 0.01 | 0.01 | 49 | 974.1 |
| 20260504180045 | 38 | 300 | 13.9 | 23.5 | 0.00 | 0.01 | 0.01 | 50 | 974.0 |
| 20260504175545 | 39 | 343 | 15.6 | 24.3 | 0.00 | 0.01 | 0.01 | 49 | 974.1 |
| 20260504175144 | 39 | 312 | 16.5 | 24.3 | 0.00 | 0.01 | 0.01 | 49 | 973.9 |
| 20260504174543 | 38 | 330 | 13.0 | 22.6 | 0.00 | 0.01 | 0.01 | 48 | 973.9 |
| 20260504174043 | 37 | 296 | 12.2 | 23.5 | 0.00 | 0.01 | 0.01 | 49 | 973.9 |
| 20260504173544 | 37 | 284 | 14.8 | 23.5 | 0.00 | 0.01 | 0.01 | 49 | 973.9 |
| 20260504173043 | 36 | 313 | 13.9 | 23.5 | 0.00 | 0.01 | 0.01 | 51 | 973.9 |
| 20260504172541 | 36 | 311 | 15.6 | 23.5 | 0.00 | 0.01 | 0.01 | 51 | 973.8 |
| 20260504172044 | 37 | 315 | 12.2 | 22.6 | 0.00 | 0.01 | 0.01 | 51 | 973.5 |
| 20260504171542 | 36 | 319 | 13.0 | 20.0 | 0.00 | 0.01 | 0.01 | 55 | 973.7 |
| 20260504171039 | 36 | 325 | 12.2 | 21.7 | 0.00 | 0.01 | 0.01 | 59 | 973.7 |
| 20260504170540 | 35 | 321 | 13.9 | 25.2 | 0.00 | 0.01 | 0.01 | 55 | 973.6 |
| 20260504151019 | 40 | 348 | 17.4 | 25.2 | 0.00 | 0.01 | 0.01 | 43 | 972.2 |
| 20260504150524 | 40 | 297 | 16.5 | 24.3 | 0.00 | 0.01 | 0.01 | 42 | 972.2 |
| 20260504141013 | 38 | 267 | 11.3 | 20.9 | 0.00 | 0.01 | 0.01 | 50 | 972.0 |
| 20260504140508 | 38 | 263 | 13.0 | 23.5 | 0.00 | 0.01 | 0.01 | 49 | 971.8 |
| 20260504130501 | 37 | 323 | 14.8 | 20.9 | 0.00 | 0.01 | 0.01 | 52 | 971.2 |
| 20260504110543 | 36 | 301 | 12.2 | 24.3 | 0.00 | 0.01 | 0.01 | 53 | 969.4 |
| 20260504100533 | 37 | 306 | 13.9 | 25.2 | 0.00 | 0.01 | 0.01 | 56 | 968.7 |
| 20260504081516 | 39 | 306 | 14.8 | 23.5 | 0.00 | 0.01 | 0.01 | 55 | 966.9 |
| 20260504081019 | 39 | 279 | 13.0 | 26.1 | 0.00 | 0.01 | 0.01 | 55 | 966.8 |
| 20260504080514 | 39 | 294 | 16.5 | 25.2 | 0.00 | 0.01 | 0.01 | 54 | 966.7 |
| 20260504050537 | 49 | 291 | 9.6 | 16.5 | 0.01 | 0.01 | 0.01 | 49 | 964.2 |
| 20260504045535 | 49 | 279 | 7.0 | 10.4 | 0.00 | 0.00 | 0.00 | 49 | 964.0 |
| 20260504045035 | 49 | 257 | 7.0 | 13.0 | 0.00 | 0.00 | 0.00 | 49 | 963.9 |
| 20260504044537 | 49 | 242 | 7.0 | 13.0 | 0.00 | 0.00 | 0.00 | 49 | 963.9 |
| 20260504044036 | 48 | 255 | 7.8 | 11.3 | 0.00 | 0.00 | 0.00 | 49 | 963.8 |
| 20260504043536 | 48 | 255 | 6.1 | 11.3 | 0.00 | 0.00 | 0.00 | 50 | 963.9 |
| 20260504043037 | 48 | 264 | 7.0 | 11.3 | 0.00 | 0.00 | 0.00 | 49 | 964.0 |
| 20260504042535 | 48 | 234 | 7.0 | 12.2 | 0.00 | 0.00 | 0.00 | 49 | 964.0 |
| 20260504042034 | 48 | 360 | 7.8 | 12.2 | 0.00 | 0.00 | 0.00 | 51 | 964.0 |
| 20260504041534 | 47 | 232 | 6.1 | 10.4 | 0.00 | 0.00 | 0.00 | 54 | 964.1 |
| 20260504041034 | 47 | 240 | 5.2 | 8.7 | 0.00 | 0.00 | 0.00 | 53 | 964.2 |
| 20260504040537 | 48 | 360 | 5.2 | 9.6 | 0.00 | 0.00 | 0.00 | 52 | 964.2 |
| 20260504040034 | 48 | 240 | 7.0 | 9.6 | 0.00 | 0.00 | 0.00 | 50 | 964.2 |
| 20260504035534 | 48 | 226 | 4.3 | 7.8 | 0.00 | 0.00 | 0.00 | 51 | 964.1 |
| 20260504035034 | 48 | 242 | 5.2 | 7.8 | 0.00 | 0.00 | 0.00 | 51 | 964.1 |
| 20260504034534 | 49 | 240 | 4.3 | 9.6 | 0.00 | 0.00 | 0.00 | 51 | 964.2 |
| 20260504034037 | 48 | 252 | 4.3 | 11.3 | 0.00 | 0.00 | 0.00 | 50 | 964.0 |
| 20260504033533 | 48 | 239 | 3.5 | 18.2 | 0.00 | 0.00 | 0.00 | 51 | 964.3 |
| 20260504033040 | 47 | 226 | 8.7 | 18.2 | 0.00 | 0.00 | 0.00 | 54 | 964.9 |
| 20260504032537 | 47 | 248 | 6.1 | 13.0 | 0.00 | 0.00 | 0.00 | 55 | 965.1 |
| 20260504032035 | 47 | 246 | 8.7 | 14.8 | 0.00 | 0.00 | 0.00 | 55 | 965.1 |
| 20260504031533 | 48 | 255 | 8.7 | 17.4 | 0.00 | 0.00 | 0.00 | 56 | 965.3 |
| 20260504031032 | 48 | 294 | 10.4 | 18.2 | 0.00 | 0.00 | 0.00 | 56 | 965.7 |
| 20260504030532 | 49 | 257 | 9.6 | 19.1 | 0.00 | 0.00 | 0.00 | 56 | 966.0 |
| 20260504030033 | 49 | 280 | 13.9 | 25.2 | 0.00 | 0.00 | 0.00 | 55 | 966.1 |
| 20260504025532 | 50 | 290 | 16.5 | 26.9 | 0.00 | 0.00 | 0.00 | 54 | 966.1 |
| 20260504025034 | 52 | 284 | 15.6 | 24.3 | 0.00 | 0.00 | 0.00 | 50 | 965.9 |
| 20260504024541 | 53 | 263 | 16.5 | 24.3 | 0.00 | 0.00 | 0.00 | 46 | 965.8 |
| 20260504024032 | 54 | 267 | 17.4 | 25.2 | 0.00 | 0.00 | 0.00 | 45 | 965.6 |
| 20260504023532 | 54 | 269 | 14.8 | 28.7 | 0.00 | 0.00 | 0.00 | 45 | 965.6 |
| 20260504023032 | 55 | 291 | 17.4 | 30.4 | 0.00 | 0.00 | 0.00 | 42 | 965.3 |
| 20260504022535 | 57 | 269 | 18.2 | 30.4 | 0.00 | 0.00 | 0.00 | 39 | 965.1 |
| 20260504022032 | 58 | 285 | 13.0 | 24.3 | 0.00 | 0.00 | 0.00 | 37 | 964.9 |
| 20260504021532 | 59 | 277 | 13.0 | 28.7 | 0.00 | 0.00 | 0.00 | 34 | 964.6 |
| 20260504021030 | 59 | 263 | 12.2 | 28.7 | 0.00 | 0.00 | 0.00 | 32 | 964.3 |
| 20260504020530 | 59 | 285 | 13.0 | 22.6 | 0.00 | 0.00 | 0.00 | 30 | 964.4 |
| 20260504020030 | 60 | 286 | 10.4 | 17.4 | 0.00 | 0.00 | 0.00 | 31 | 964.2 |
| 20260504015530 | 60 | 360 | 8.7 | 13.9 | 0.00 | 0.00 | 0.00 | 30 | 964.1 |
| 20260504015033 | 61 | 306 | 7.8 | 15.6 | 0.00 | 0.00 | 0.00 | 30 | 964.0 |
| 20260504014530 | 61 | 360 | 10.4 | 20.0 | 0.00 | 0.00 | 0.00 | 28 | 964.1 |
| 20260504014032 | 61 | 302 | 11.3 | 17.4 | 0.00 | 0.00 | 0.00 | 28 | 964.0 |
| 20260504013531 | 61 | 306 | 9.6 | 17.4 | 0.00 | 0.00 | 0.00 | 29 | 964.0 |
| 20260504013037 | 61 | 288 | 8.7 | 15.6 | 0.00 | 0.00 | 0.00 | 29 | 964.0 |
| 20260504012531 | 61 | 296 | 8.7 | 15.6 | 0.00 | 0.00 | 0.00 | 28 | 963.9 |
| 20260504012030 | 62 | 360 | 9.6 | 15.6 | 0.00 | 0.00 | 0.00 | 27 | 963.7 |
| 20260504011530 | 62 | 360 | 8.7 | 13.9 | 0.00 | 0.00 | 0.00 | 27 | 963.7 |
| 20260504011032 | 63 | 360 | 8.7 | 16.5 | 0.00 | 0.00 | 0.00 | 26 | 963.7 |
| 20260504010530 | 63 | 360 | 11.3 | 17.4 | 0.00 | 0.00 | 0.00 | 25 | 963.7 |
| 20260504010029 | 64 | 360 | 9.6 | 17.4 | 0.00 | 0.00 | 0.00 | 26 | 963.7 |
| 20260504005528 | 64 | 360 | 6.1 | 12.2 | 0.00 | 0.00 | 0.00 | 28 | 963.7 |
| 20260504005028 | 65 | 302 | 6.1 | 19.1 | 0.00 | 0.00 | 0.00 | 26 | 963.6 |
| 20260504004528 | 65 | 282 | 10.4 | 19.1 | 0.00 | 0.00 | 0.00 | 24 | 963.5 |
| 20260504004027 | 66 | 276 | 8.7 | 14.8 | 0.00 | 0.00 | 0.00 | 25 | 963.6 |
| 20260504003527 | 66 | 360 | 8.7 | 14.8 | 0.00 | 0.00 | 0.00 | 25 | 963.7 |
| 20260504003038 | 66 | 254 | 9.6 | 13.9 | 0.00 | 0.00 | 0.00 | 25 | 963.7 |
| 20260504002529 | 66 | 273 | 8.7 | 13.9 | 0.00 | 0.00 | 0.00 | 25 | 963.8 |
| 20260504002025 | 67 | 360 | 7.8 | 12.2 | 0.00 | 0.00 | 0.00 | 25 | 963.9 |
| 20260504001525 | 67 | 292 | 7.8 | 15.6 | 0.00 | 0.00 | 0.00 | 25 | 964.0 |
| 20260504001028 | 67 | 292 | 7.8 | 15.6 | 0.00 | 0.00 | 0.00 | 25 | 964.0 |
| 20260504000523 | 67 | 360 | 9.6 | 15.6 | 0.00 | 0.00 | 0.00 | 27 | 964.1 |
| 20260504000023 | 68 | 236 | 7.8 | 14.8 | 0.00 | 0.00 | 0.00 | 31 | 964.1 |
| 20260503235522 | 68 | 360 | 8.7 | 17.4 | 0.00 | 0.00 | 0.00 | 31 | 964.0 |
| 20260503235022 | 68 | 275 | 12.2 | 17.4 | 0.00 | 0.00 | 0.00 | 31 | 964.1 |
| 20260503234522 | 68 | 245 | 11.3 | 17.4 | 0.00 | 0.00 | 0.00 | 31 | 964.1 |
| 20260503234022 | 68 | 273 | 8.7 | 18.2 | 0.00 | 0.00 | 0.00 | 32 | 964.2 |
| 20260503233523 | 68 | 249 | 12.2 | 22.6 | 0.00 | 0.00 | 0.00 | 33 | 964.3 |
| 20260503233024 | 68 | 245 | 13.9 | 22.6 | 0.00 | 0.00 | 0.00 | 32 | 964.3 |
| 20260503232523 | 68 | 236 | 12.2 | 21.7 | 0.00 | 0.00 | 0.00 | 32 | 964.5 |
| 20260503232019 | 68 | 229 | 13.9 | 20.9 | 0.00 | 0.00 | 0.00 | 32 | 964.4 |
| 20260503231519 | 68 | 236 | 13.0 | 24.3 | 0.00 | 0.00 | 0.00 | 32 | 964.6 |
| 20260503231022 | 68 | 360 | 15.6 | 24.3 | 0.00 | 0.00 | 0.00 | 32 | 964.7 |
| 20260503230519 | 69 | 220 | 15.6 | 26.9 | 0.00 | 0.00 | 0.00 | 32 | 964.5 |
| 20260503230017 | 69 | 360 | 20.9 | 27.8 | 0.00 | 0.00 | 0.00 | 32 | 964.6 |
| 20260503225517 | 68 | 238 | 17.4 | 27.8 | 0.00 | 0.00 | 0.00 | 33 | 964.7 |
| 20260503225021 | 67 | 236 | 15.6 | 28.7 | 0.00 | 0.00 | 0.00 | 34 | 964.7 |
| 20260503224526 | 68 | 242 | 21.7 | 28.7 | 0.00 | 0.00 | 0.00 | 33 | 964.8 |